Regional Weather Roundup
Issued by NWS San Diego, CA

Home | Current Version | Previous Version | Text Only | Print | Product List | Glossary On
Versions: 1 2 3 4 5 6 7 8 9 10 11 12 13 14 15 16 17 18 19 20 21 22 23 24 25 26 27 28 29 30 31 32 33 34 35 36 37 38 39 40 41 42 43 44 45 46 47 48 49 50
000
ASUS46 KSGX 160310
RWRSGX

SAN DIEGO HOURLY WEATHER ROUNDUP
NATIONAL WEATHER SERVICE SAN DIEGO CA
800 PM PDT MON SEP 15 2014

NOTE: "FAIR" INDICATES FEW OR NO CLOUDS BELOW 12,000 FEET WITH NO
SIGNIFICANT WEATHER AND/OR OBSTRUCTIONS TO VISIBILITY.

CAZ042-043-060-061-PZZ750-775-160400-

GREATER SAN DIEGO AREA

CITY           SKY/WX    TMP DP  RH WIND       PRES   REMARKS
LINDBERGH FLD  PTCLDY    80  68  66 NW3       29.78R
POINT LOMA       N/A     74  65  73 NW3         N/A
NATIONAL CITY    N/A     78  73  85 CALM      29.78R
CHULA VISTA      N/A     77  73  88 CALM      29.71R
IMPERIAL BEACH PTCLDY    75  72  90 CALM      29.78R
BROWN FIELD    CLEAR     76  70  82 NW3       29.79R
MIRAMAR MCAS   CLEAR     81  58  45 W3        29.78S
MONTGOMERY FLD CLEAR     84  59  42 N3        29.79R

$$

NORTH SAN DIEGO COUNTY

CITY           SKY/WX    TMP DP  RH WIND       PRES   REMARKS
CAMP PENDLETON CLEAR     77  63  61 S5        29.77R
OCEANSIDE AP   CLEAR     79  67  66 S6        29.76R
OCEANSIDE HBR    N/A     76  72  88 SE3       29.79R
VISTA            N/A     80  66  61 CALM      29.75R
CARLSBAD       CLEAR     79  65  62 SW3       29.77R
DEL MAR          N/A     76  71  84 CALM      29.79S
LA JOLLA SCRIP   N/A     77  71  82 CALM      29.75R
FALLBROOK        N/A     79  66  65 CALM      29.77R
ESCONDIDO        N/A     85  63  47 SW3       29.78R
SAN MARCOS       N/A     81  65  58 CALM      29.75R
POWAY            N/A     84  65  53 CALM      29.77R

$$

EAST SAN DIEGO COUNTY

CITY           SKY/WX    TMP DP  RH WIND       PRES   REMARKS
RAMONA         CLEAR     84  57  39 CALM      29.84R
SANTEE LAKES     N/A     84  62  47 W5        29.77S
LA MESA          N/A     82  72  72 CALM      29.71R
JAMUL            N/A     83  68  61 CALM      29.76R
DESCANSO N       N/A     77  54  44 CALM      29.65R
MT. LAGUNA OBS   N/A     72  50  45 CALM      29.74R
CAMPO            N/A     84  57  39 CALM      29.89R

$$

ORANGE COUNTY AND THE LOS ANGELES BASIN

CITY           SKY/WX    TMP DP  RH WIND       PRES   REMARKS
JOHN WAYNE AP  PTCLDY    83  62  49 SW7       29.74R
LAGUNA BEACH     N/A    N/A N/A N/A SE2       29.70R
LAKE FOREST FR   N/A     89  49  25 CALM      29.64R
SANTA ANA        N/A     86  65  48 CALM      29.68R
HUNTINGTON BCH   N/A     77  67  71 CALM      29.75R
LOS ALAMITOS   FAIR      83  64  52 S2        29.73R
FULLERTON      CLEAR     90  55  30 SW3       29.72R
LONG BEACH     CLEAR     86  59  39 NW6       29.73R
L.A. AP        CLEAR     79  62  56 W7        29.73R
L.A. DOWNTOWN  CLEAR     87  60  40 CALM      29.72R

$$

THE INLAND EMPIRE

CITY           SKY/WX    TMP DP  RH WIND       PRES   REMARKS
CHINO          PTCLDY    87  56  34 W3        29.77R
ONTARIO        PTCLDY    93  52  24 SW8       29.77R
RIVERSIDE AP   CLEAR     93  51  23 W7        29.77R
RIV CYN CREST    N/A     91  62  37 CALM      29.77R
MORENO VALLEY    N/A     91  52  26 NW5       29.04R
MARCH ARB      PTCLDY    91  52  26 NW8       29.83R
HORSETHIEF CYN   N/A     94  45  18 W2        29.75R
PERRIS           N/A     92  52  25 SE7       29.79R
MENIFEE          N/A     95  59  30 SE7       29.85R
HEMET EAST       N/A     90  47  22 CALM      29.76R
FRENCH VALLEY  FAIR      90  57  33 SE3       29.82R
TEMECULA         N/A     89  57  34 S1        29.77R

$$

SAN BERNARDINO AND RIVERSIDE COUNTY MOUNTAINS

CITY           SKY/WX    TMP DP  RH WIND       PRES   REMARKS
BIG BEAR AP    PTCLDY    70  45  40 CALM      30.26R
PINE COVE        N/A     70  50  49 N1        29.72R

$$

SOUTHERN DESERT INCLUDING THE COACHELLA VALLEY

CITY           SKY/WX    TMP DP  RH WIND       PRES   REMARKS
PALM SPRINGS   PTCLDY   103  57  21 VRB3      29.73R HX 102
THOUSAND PALMS   N/A    100  58  25 E5        29.66R HX  99
PALM DESERT      N/A    101  63  28 CALM        N/A  HX 103
THERMAL        NOT AVBL
BLYTHE         CLEAR    101  58  24 NE6       29.71R HX 100
IMPERIAL AP    CLEAR     98  60  28 W3        29.66R HX  98
EL CENTRO NAS  PTCLDY   102  55  20 CALM      29.66R HX 100
YUMA AZ        MOCLDY    96  68  39 S16       29.72R HX 101
MEXICALI       PTCLDY    97  66  36 SE9       29.69  HX 100

$$

UPPER DESERT

CITY           SKY/WX    TMP DP  RH WIND       PRES   REMARKS
VICTORVILLE AP PTCLDY    91  39  16 CALM      29.92R
HESPERIA         N/A     89  51  26 W1        29.83R
APPLE VALLEY     N/A     85  52  32 CALM      29.98R
PALMDALE       CLEAR     90  48  23 W8        29.91R
LANCASTER      CLEAR     88  46  23 W15       29.89R
EDWARDS AFB    PTCLDY    91  49  23 W14       29.86R
DAGGETT        CLEAR     94  44  17 E7        29.83R
29 PALMS N     CLEAR     92  49  22 SE7       29.92R
NEEDLES        CLEAR    100  53  20 SW5       29.76R HX  98

$$

REGIONAL REPORTS

CITY           SKY/WX    TMP DP  RH WIND       PRES   REMARKS
SANTA BARBARA  CLEAR     83  55  38 S5        29.74R
SANDBERG       CLEAR     80  45  28 N8        30.08R
MT. WILSON       N/A     75  45  33 NE1         N/A
LAS VEGAS NV   PTCLDY    97  42  15 S7        29.83R
PHOENIX AZ     MOCLDY    99  59  26 SW3       29.79R HX  99
TIJUANA        PTCLDY    77  66  69 NW10      29.80R
ENSENADA NW      N/A     76  32  20 CALM      29.75R

$$

OFFSHORE ISLANDS

CITY           SKY/WX    TMP DP  RH WIND       PRES   REMARKS
CATALINA ARPT  CLEAR     86  50  28 NW13      29.86R
SAN NICOLAS IS CLEAR    N/A N/A N/A NW31G41   29.79R

$$

MARINE AND OFFSHORE BUOY REPORTS

STATION/POSITION SKY/WX   TEMP    WIND        PRES    SWELL
                          AIR SEA DIR/SP/G            HT/PER/DIR
                          (F)     (DEG/KT/KT) (MB)    (FT/S/D)
TANNER BANKS               69 70  310/ 21/ 27 1008.3F   2/250/19
S CLEMENTE BASIN           73 74  280/  8/  8 1008.2R   5/200/21
SAN NICOLAS IS.               66                N/A     3/220/20
SO. S. ROSA ISLA           68 69  320/ 25/ 29 1008.9R
W. S. BARBARA CH           65 65  320/ 23/ 27 1009.1R   2/310/19
M. S. BARBARA CH           73 68  270/ 16/ 17 1007.5F
S. MONICA BASIN            75 74  270/  4/  4 1007.0R   3/170/21
S PEDRO CHANNEL               74                N/A     2/180/13
DANA POINT                    71                N/A     2/210/22
CMP PENDLETON NS              72                N/A     3/220/22
OCEANSIDE OFFSHR              74                N/A     2/210/22
TORREY PINES OTR              76                N/A     3/210/20
LA JOLLA 1                                    1008.1
MISSION BAY BUOY              76                N/A     2/210/22
SAN DIEGO BAY                                 1008.7R

$$



USA.gov is the U.S. government's official web portal to all federal, state and local government web resources and services.